Regional Weather Roundup
Issued by NWS

Home | Current Version | Previous Version | Graphics & Text | Print | Product List | Glossary On
Versions: 1 2 3 4 5 6 7 8 9 10 11 12 13 14 15 16 17 18 19 20 21 22 23 24 25 26 27 28
000
ASUS45 KSLC 151910
RWRUT

UTAH REGIONAL WEATHER ROUNDUP
NATIONAL WEATHER SERVICE SALT LAKE CITY UT
100 PM MDT TUE APR 15 2014

UTZ001>011-023>025-152000-

NORTHERN UTAH

CITY           SKY/WX    TMP DP  RH WIND       PRES   REMARKS
HILL AFB       PTSUNNY   61  10  13 S15G24    29.92F
LOGAN          MOSUNNY   62  18  18 SW17      29.89F
OGDEN          MOSUNNY   62  13  14 SW8       29.91F
PROVO AIRPORT  MOSUNNY   61  25  25 SE6       29.97F
SALT LAKE CITY MOSUNNY   64  14  14 S14       29.92F
VERNAL         MOSUNNY   47  20  34 VRB6      30.00F
WENDOVER       MOSUNNY   57  10  15 E9        29.92F
HEBER CITY     SUNNY     61  12  15 SW18      29.95F
WEST JORDAN    SUNNY     61  27  27 SE18      29.94F

$$

UTZ012>022-026-027-152000-

SOUTHERN UTAH

CITY           SKY/WX    TMP DP  RH WIND       PRES   REMARKS
BRYCE CANYON   PTSUNNY   54  13  19 SE10      30.11F
CEDAR CITY     PTSUNNY   65   5   9 S9        30.02F
MILFORD        CLOUDY    63   6  10 S18       30.00F
MOAB/CYNLANDS  SUNNY     55  15  20 S6        30.03F
PRICE          MOSUNNY   52   9  17 S9        30.05F
ST GEORGE      CLEAR     64  16  15 CALM      30.02F
KANAB            N/A     63   3   9 S7        30.07F

$$

REGIONAL REPORTS     COLORADO/ARIZONA

CITY           SKY/WX    TMP DP  RH WIND       PRES   REMARKS
CRAIG, CO      PTSUNNY   50  19  29 SW14G21   30.00F
GRAND JUNCTION MOSUNNY   52  14  22 SW3       30.05F
RIFLE          PTSUNNY   49  19  30 SE3       30.05F
MONTROSE       MOSUNNY   52  19  27 NW7       30.08F
CORTEZ         SUNNY     57  12  17 SW12      30.10F
PAGE, AZ       MOSUNNY   61   9  12 N7        30.05F
GRAND CANYON   MOSUNNY   62  -5   6 SW10G20   30.12F
KINGMAN        PTSUNNY   73  -4   5 SW9       30.00F
FLAGSTAFF      MOSUNNY   61   2   9 SW14G21   30.13F

$$

REGIONAL REPORTS    NEVADA/IDAHO/WYOMING

CITY           SKY/WX    TMP DP  RH WIND       PRES   REMARKS
LAS VEGAS, NV  CLOUDY    75   8   7 CALM      29.93F
ELY            SUNNY     62  10  13 SW10G23   30.02F
ELKO           MOSUNNY   65  14  14 W25G32    29.97F
POCATELLO, ID  PTSUNNY   61  17  18 W33G43    29.85S
BURLEY         LGT RAIN  59  24  26 W24G37    29.91R
EVANSTON, WY   MOSUNNY   54  11  18 W25G36    29.95F
ROCK SPRINGS   NOT AVBL

$$



USA.gov is the U.S. government's official web portal to all federal, state and local government web resources and services.